Tracking 29747 objects as of 9-Oct-2024
HD Live streaming from Space Station
objects crossing your sky now

STARLINK-1156

Track STARLINK-1156 now!
10-day predictions
STARLINK-1156 is classified as:


NORAD ID: 45054
Int'l Code: 2020-006L
Perigee: 553.3 km
Apogee: 555.4 km
Inclination: 53.1 °
Period: 95.6 minutes
Semi major axis: 6925 km
RCS: Unknown
Launch date: January 29, 2020
Source: United States (US)
Launch site: AIR FORCE EASTERN TEST RANGE (AFETR)
Your satellite tracking list
Your tracking list is empty




NASA's NSSDC Master Catalog

Two Line Element Set (TLE):
1 45054U 20006L   24282.75748722 -.00000359  00000-0 -52130-5 0  9991
2 45054  53.0546  87.2166 0001532 102.2638 257.8523 15.06402048258542
Source of the keplerian elements: AFSPC